Regional Weather Roundup
Issued by NWS

Home | Current Version | Previous Version | Text Only | Print | Product List | Glossary Off
Versions: 1 2 3 4 5 6 7 8 9 10 11 12 13 14 15 16 17 18 19 20 21 22 23 24 25 26 27 28 29 30 31 32 33 34 35 36 37 38 39 40 41 42 43 44 45 46 47 48 49 50

000
ASUS43 KBIS 201810
RWRND

NORTH DAKOTA REGIONAL WEATHER ROUNDUP
NATIONAL WEATHER SERVICE BISMARCK ND
100 PM CDT SUN APR 20 2014

NOTE: "FAIR" INDICATES FEW OR NO CLOUDS BELOW 12,000 FEET WITH NO
SIGNIFICANT WEATHER AND/OR OBSTRUCTIONS TO VISIBILITY.


NDZ001>003-009>011-017-201900-
NORTHWEST NORTH DAKOTA

CITY           SKY/WX    TMP DP  RH WIND       PRES   REMARKS
WILLISTON      PTSUNNY   63  29  27 W17G24    29.85R
6HR MIN TEMP:  29; 6HR MAX TEMP:  64;

MINOT          PTSUNNY   65  33  30 S12G18    29.84F
MINOT AFB      PTSUNNY   65  38  36 S14       29.83F
$$

NDZ018>021-031>035-040>046-201900-
SOUTHWEST NORTH DAKOTA

CITY           SKY/WX    TMP DP  RH WIND       PRES   REMARKS
BISMARCK       PTSUNNY   72  33  24 S10       29.91F
6HR MIN TEMP:  33; 6HR MAX TEMP:  72;

DICKINSON      CLOUDY    66  34  30 W21       29.89R
GARRISON         N/A     66  33  29 S13       29.86F
6HR MIN TEMP:  30; 6HR MAX TEMP:  67;

HETTINGER ARPT PTSUNNY   69  37  30 SW15      29.92S
$$

NDZ004>008-012>016-024-026-027-054-201900-
NORTHEAST NORTH DAKOTA

CITY           SKY/WX    TMP DP  RH WIND       PRES   REMARKS
GRAND FORKS    MOSUNNY   60  40  47 VRB6      29.98F
GRND FRKS AFB  SUNNY     61  40  45 S8        29.98F
DEVILS LAKE    MOSUNNY   61  39  44 S15       29.94F
$$

NDZ022-023-025-028>030-036>039-047>053-201900-
SOUTHEAST NORTH DAKOTA

CITY           SKY/WX    TMP DP  RH WIND       PRES   REMARKS
FARGO          SUNNY     67  37  33 SE14      29.99F
6HR MIN TEMP:  31; 6HR MAX TEMP:  68;

JAMESTOWN      SUNNY     69  37  30 S15       29.94F
$$




USA.gov is the U.S. government's official web portal to all federal, state and local government web resources and services.